PEGASUS DEB, 24594

Orbit data source: Space-Track

PEGASUS DEB, 24594 is space debris in LEO originally from a launch on Thu, 19 May 1994 UTC launched from the Air Force Western Test Range (AFWTR). Debris objects in space refer to the collection of defunct objects orbiting the Earth. Examples of debris include non-operational satellites, rocket bodies, and fragments generated from explosions, collisions, or faulty payload assembly.

Loading next visibility...
Identifier
24594, 1994-029YW
Orbit
LEO
Country
Flag of USUS
Related business
Manufacturer
Unknown
Mission
Spacecraft
Bus & Motor
Unknown
Mass
Unknown
Launch date (UTC)
1994-05-19 (32 years ago)
Launch vehicle
Unknown
Launch site
Air Force Western Test Range (AFWTR)
Object type
Payload
Rocket body
Debris
Shape & HBR
Unknown shape, 0.1 m
Radar Cross Section
Small (<0.1 m²)

Expand to show TLE details & history
Last TLE update: 12 hours ago

TLE from 12 hours ago
0 PEGASUS DEB
1 24594U 94029YW  26062.49928865  .00005682  00000-0  11970-2 0  9996
2 24594  81.4469  98.3063 0448365 266.0302  88.9520 14.11472692492730
Epoch: 2026-03-03T11:58Z
TLE epoch observation values (Epoch: 2026-03-03T11:58:58.539Z)
Latitude
0.00007°
Longitude
117.28493°
Altitude
865.853 km
Speed
7.415 km/s
True Right ascension
06h 33m 13s
True Declination
0° 00' 00"
Sunlit
Object was in daylight at epoch
Visualization orbit readout
Latitude
Unknown
Longitude
Unknown
Altitude
Unknown
Speed
Unknown
Apparent Right ascension
Unknown
Apparent Declination
Unknown
Sunlit
N/A
Visualization observer readout
Local Sidereal Time
04:08:25
Azimuth
Unknown
Elevation
Unknown
Doppler factor
Unknown
Orbital elements
Apogee altitude
1,175.642 km
Perigee altitude
527.339 km
Semi-major axis
7,229.628 km
Eccentricity
0.04484
Inclination
81.4469°
RAAN
98.3063°
Arg. of periapsis
266.0302°
True anomaly
94.08741°
Mean anomaly
88.952°
Eccentric anomaly
91.52004°
Mean motion
3.53077 °/min
Orbital period
101.96 mins
BSTAR
0.001197
Loading maneuver chart data...
Computing Atmospheric mass density...

Documentation

Showing up to 5 results
|